Year,Month,Day,Hour,Minute,Value (Times are PST for temperature in C)
2022,05,07,00,00,6.20
2022,05,07,00,01,6.20
2022,05,07,00,02,6.20
2022,05,07,00,03,6.10
2022,05,07,00,04,6.10
2022,05,07,00,05,6.10
2022,05,07,00,06,6.00
2022,05,07,00,07,6.00
2022,05,07,00,08,6.00
2022,05,07,00,09,6.00
2022,05,07,00,10,5.90
2022,05,07,00,11,5.90
2022,05,07,00,12,5.90
2022,05,07,00,13,5.90
2022,05,07,00,14,5.80
2022,05,07,00,15,5.80
2022,05,07,00,16,5.80
2022,05,07,00,17,5.80
2022,05,07,00,18,5.80
2022,05,07,00,19,5.70
2022,05,07,00,20,5.70
2022,05,07,00,21,5.70
2022,05,07,00,22,5.70
2022,05,07,00,23,5.70
2022,05,07,00,24,5.60
2022,05,07,00,25,5.60
2022,05,07,00,26,5.60
2022,05,07,00,27,5.60
2022,05,07,00,28,5.60
2022,05,07,00,29,5.60
2022,05,07,00,30,5.50
2022,05,07,00,31,5.50
2022,05,07,00,32,5.50
2022,05,07,00,33,5.50
2022,05,07,00,34,5.50
2022,05,07,00,35,5.50
2022,05,07,00,36,5.50
2022,05,07,00,37,5.50
2022,05,07,00,38,5.50
2022,05,07,00,39,5.40
2022,05,07,00,40,5.40
2022,05,07,00,41,5.40
2022,05,07,00,42,5.40
2022,05,07,00,43,5.40
2022,05,07,00,44,5.40
2022,05,07,00,45,5.40
2022,05,07,00,46,5.40
2022,05,07,00,47,5.40
2022,05,07,00,48,5.40
2022,05,07,00,49,5.40
2022,05,07,00,50,5.40
2022,05,07,00,51,5.30
2022,05,07,00,52,5.30
2022,05,07,00,53,5.30
2022,05,07,00,54,5.30
2022,05,07,00,55,5.30
2022,05,07,00,56,5.30
2022,05,07,00,57,5.30
2022,05,07,00,58,5.30
2022,05,07,00,59,5.30
2022,05,07,01,00,5.30
2022,05,07,01,01,5.30
2022,05,07,01,02,5.30
2022,05,07,01,03,5.30
2022,05,07,01,04,5.30
2022,05,07,01,05,5.30
2022,05,07,01,06,5.30
2022,05,07,01,07,5.30
2022,05,07,01,08,5.30
2022,05,07,01,09,5.30
2022,05,07,01,10,5.30
2022,05,07,01,11,5.30
2022,05,07,01,12,5.30
2022,05,07,01,13,5.30
2022,05,07,01,14,5.30
2022,05,07,01,15,5.30
2022,05,07,01,16,5.30
2022,05,07,01,17,5.30
2022,05,07,01,18,5.30
2022,05,07,01,19,5.30
2022,05,07,01,20,5.30
2022,05,07,01,21,5.30
2022,05,07,01,22,5.30
2022,05,07,01,23,5.30
2022,05,07,01,24,5.30
2022,05,07,01,25,5.30
2022,05,07,01,26,5.30
2022,05,07,01,27,5.30
2022,05,07,01,28,5.30
2022,05,07,01,29,5.30
2022,05,07,01,30,5.30
2022,05,07,01,31,5.30
2022,05,07,01,32,5.30
2022,05,07,01,33,5.30
2022,05,07,01,34,5.30
2022,05,07,01,35,5.20
2022,05,07,01,36,5.20
2022,05,07,01,37,5.20
2022,05,07,01,38,5.20
2022,05,07,01,39,5.20
2022,05,07,01,40,5.20
2022,05,07,01,41,5.20
2022,05,07,01,42,5.20
2022,05,07,01,43,5.20
2022,05,07,01,44,5.20
2022,05,07,01,45,5.20
2022,05,07,01,46,5.20
2022,05,07,01,47,5.20
2022,05,07,01,48,5.20
2022,05,07,01,49,5.20
2022,05,07,01,50,5.20
2022,05,07,01,51,5.20
2022,05,07,01,52,5.10
2022,05,07,01,53,5.10
2022,05,07,01,54,5.10
2022,05,07,01,55,5.10
2022,05,07,01,56,5.10
2022,05,07,01,57,5.10
2022,05,07,01,58,5.10
2022,05,07,01,59,5.00
2022,05,07,02,00,5.00
2022,05,07,02,01,5.00
2022,05,07,02,02,5.00
2022,05,07,02,03,5.00
2022,05,07,02,04,4.90
2022,05,07,02,05,4.90
2022,05,07,02,06,4.90
2022,05,07,02,07,4.90
2022,05,07,02,08,4.80
2022,05,07,02,09,4.80
2022,05,07,02,10,4.80
2022,05,07,02,11,4.80
2022,05,07,02,12,4.80
2022,05,07,02,13,4.80
2022,05,07,02,14,4.80
2022,05,07,02,15,4.80
2022,05,07,02,16,4.70
2022,05,07,02,17,4.70
2022,05,07,02,18,4.70
2022,05,07,02,19,4.70
2022,05,07,02,20,4.60
2022,05,07,02,21,4.60
2022,05,07,02,22,4.60
2022,05,07,02,23,4.60
2022,05,07,02,24,4.60
2022,05,07,02,25,4.50
2022,05,07,02,26,4.50
2022,05,07,02,27,4.50
2022,05,07,02,28,4.50
2022,05,07,02,29,4.50
2022,05,07,02,30,4.50
2022,05,07,02,31,4.50
2022,05,07,02,32,4.50
2022,05,07,02,33,4.40
2022,05,07,02,34,4.40
2022,05,07,02,35,4.40
2022,05,07,02,36,4.40
2022,05,07,02,37,4.40
2022,05,07,02,38,4.40
2022,05,07,02,39,4.40
2022,05,07,02,40,4.40
2022,05,07,02,41,4.40
2022,05,07,02,42,4.40
2022,05,07,02,43,4.40
2022,05,07,02,44,4.40
2022,05,07,02,45,4.40
2022,05,07,02,46,4.40
2022,05,07,02,47,4.30
2022,05,07,02,48,4.30
2022,05,07,02,49,4.30
2022,05,07,02,50,4.30
2022,05,07,02,51,4.30
2022,05,07,02,52,4.30
2022,05,07,02,53,4.30
2022,05,07,02,54,4.30
2022,05,07,02,55,4.30
2022,05,07,02,56,4.30
2022,05,07,02,57,4.30
2022,05,07,02,58,4.30
2022,05,07,02,59,4.30
2022,05,07,03,00,4.30
2022,05,07,03,01,4.30
2022,05,07,03,02,4.30
2022,05,07,03,03,4.20
2022,05,07,03,04,4.20
2022,05,07,03,05,4.20
2022,05,07,03,06,4.20
2022,05,07,03,07,4.20
2022,05,07,03,08,4.20
2022,05,07,03,09,4.20
2022,05,07,03,10,4.20
2022,05,07,03,11,4.20
2022,05,07,03,12,4.20
2022,05,07,03,13,4.20
2022,05,07,03,14,4.20
2022,05,07,03,15,4.20
2022,05,07,03,16,4.10
2022,05,07,03,17,4.10
2022,05,07,03,18,4.10
2022,05,07,03,19,4.10
2022,05,07,03,20,4.10
2022,05,07,03,21,4.10
2022,05,07,03,22,4.10
2022,05,07,03,23,4.10
2022,05,07,03,24,4.00
2022,05,07,03,25,4.00
2022,05,07,03,26,4.00
2022,05,07,03,27,4.00
2022,05,07,03,28,4.00
2022,05,07,03,29,4.00
2022,05,07,03,30,4.00
2022,05,07,03,31,4.00
2022,05,07,03,32,4.00
2022,05,07,03,33,4.00
2022,05,07,03,34,4.00
2022,05,07,03,35,4.00
2022,05,07,03,36,4.00
2022,05,07,03,37,4.00
2022,05,07,03,38,4.00
2022,05,07,03,39,4.00
2022,05,07,03,40,4.00
2022,05,07,03,41,3.90
2022,05,07,03,42,3.90
2022,05,07,03,43,3.90
2022,05,07,03,44,3.90
2022,05,07,03,45,3.80
2022,05,07,03,46,3.80
2022,05,07,03,47,3.80
2022,05,07,03,48,3.80
2022,05,07,03,49,3.70
2022,05,07,03,50,3.70
2022,05,07,03,51,3.60
2022,05,07,03,52,3.60
2022,05,07,03,53,3.60
2022,05,07,03,54,3.50
2022,05,07,03,55,3.50
2022,05,07,03,56,3.40
2022,05,07,03,57,3.40
2022,05,07,03,58,3.40
2022,05,07,03,59,3.40
2022,05,07,04,00,3.40
2022,05,07,04,01,3.40
2022,05,07,04,02,3.40
2022,05,07,04,03,3.40
2022,05,07,04,04,3.40
2022,05,07,04,05,3.50
2022,05,07,04,06,3.50
2022,05,07,04,07,3.50
2022,05,07,04,08,3.50
2022,05,07,04,09,3.50
2022,05,07,04,10,3.50
2022,05,07,04,11,3.50
2022,05,07,04,12,3.50
2022,05,07,04,13,3.50
2022,05,07,04,14,3.50
2022,05,07,04,15,3.50
2022,05,07,04,16,3.50
2022,05,07,04,17,3.50
2022,05,07,04,18,3.50
2022,05,07,04,19,3.50
2022,05,07,04,20,3.50
2022,05,07,04,21,3.50
2022,05,07,04,22,3.40
2022,05,07,04,23,3.40
2022,05,07,04,24,3.40
2022,05,07,04,25,3.40
2022,05,07,04,26,3.40
2022,05,07,04,27,3.30
2022,05,07,04,28,3.30
2022,05,07,04,29,3.30
2022,05,07,04,30,3.30
2022,05,07,04,31,3.30
2022,05,07,04,32,3.30
2022,05,07,04,33,3.30
2022,05,07,04,34,3.30
2022,05,07,04,35,3.30
2022,05,07,04,36,3.30
2022,05,07,04,37,3.30
2022,05,07,04,38,3.20
2022,05,07,04,39,3.20
2022,05,07,04,40,3.30
2022,05,07,04,41,3.30
2022,05,07,04,42,3.30
2022,05,07,04,43,3.30
2022,05,07,04,44,3.30
2022,05,07,04,45,3.30
2022,05,07,04,46,3.30
2022,05,07,04,47,3.30
2022,05,07,04,48,3.30
2022,05,07,04,49,3.30
2022,05,07,04,50,3.40
2022,05,07,04,51,3.40
2022,05,07,04,52,3.30
2022,05,07,04,53,3.40
2022,05,07,04,54,3.30
2022,05,07,04,55,3.30
2022,05,07,04,56,3.40
2022,05,07,04,57,3.30
2022,05,07,04,58,3.30
2022,05,07,04,59,3.40
2022,05,07,05,00,3.30
2022,05,07,05,01,3.40
2022,05,07,05,02,3.40
2022,05,07,05,03,3.40
2022,05,07,05,04,3.40
2022,05,07,05,05,3.40
2022,05,07,05,06,3.40
2022,05,07,05,07,3.40
2022,05,07,05,08,3.40
2022,05,07,05,09,3.50
2022,05,07,05,10,3.50
2022,05,07,05,11,3.50
2022,05,07,05,12,3.50
2022,05,07,05,13,3.50
2022,05,07,05,14,3.50
2022,05,07,05,15,3.50
2022,05,07,05,16,3.50
2022,05,07,05,17,3.40
2022,05,07,05,18,3.40
2022,05,07,05,19,3.40
2022,05,07,05,20,3.40
2022,05,07,05,21,3.40
2022,05,07,05,22,3.40
2022,05,07,05,23,3.40
2022,05,07,05,24,3.40
2022,05,07,05,25,3.30
2022,05,07,05,26,3.30
2022,05,07,05,27,3.30
2022,05,07,05,28,3.30
2022,05,07,05,29,3.30
2022,05,07,05,30,3.30
2022,05,07,05,31,3.30
2022,05,07,05,32,3.20
2022,05,07,05,33,3.20
2022,05,07,05,34,3.20
2022,05,07,05,35,3.20
2022,05,07,05,36,3.20
2022,05,07,05,37,3.20
2022,05,07,05,38,3.20
2022,05,07,05,39,3.20
2022,05,07,05,40,3.20
2022,05,07,05,41,3.20
2022,05,07,05,42,3.20
2022,05,07,05,43,3.20
2022,05,07,05,44,3.20
2022,05,07,05,45,3.20
2022,05,07,05,46,3.20
2022,05,07,05,47,3.20
2022,05,07,05,48,3.20
2022,05,07,05,49,3.20
2022,05,07,05,50,3.20
2022,05,07,05,51,3.20
2022,05,07,05,52,3.20
2022,05,07,05,53,3.30
2022,05,07,05,54,3.30
2022,05,07,05,55,3.30
2022,05,07,05,56,3.30
2022,05,07,05,57,3.30
2022,05,07,05,58,3.30
2022,05,07,05,59,3.30
2022,05,07,06,00,3.30
2022,05,07,06,01,3.30
2022,05,07,06,02,3.30
2022,05,07,06,03,3.30
2022,05,07,06,04,3.30
2022,05,07,06,05,3.30
2022,05,07,06,06,3.30
2022,05,07,06,07,3.30
2022,05,07,06,08,3.20
2022,05,07,06,09,3.20
2022,05,07,06,10,3.20
2022,05,07,06,11,3.20
2022,05,07,06,12,3.20
2022,05,07,06,13,3.20
2022,05,07,06,14,3.20
2022,05,07,06,15,3.20
2022,05,07,06,16,3.20
2022,05,07,06,17,3.20
2022,05,07,06,18,3.20
2022,05,07,06,19,3.20
2022,05,07,06,20,3.20
2022,05,07,06,21,3.20
2022,05,07,06,22,3.20
2022,05,07,06,23,3.20
2022,05,07,06,24,3.20
2022,05,07,06,25,3.20
2022,05,07,06,26,3.20
2022,05,07,06,27,3.20
2022,05,07,06,28,3.20
2022,05,07,06,29,3.20
2022,05,07,06,30,3.20
2022,05,07,06,31,3.20
2022,05,07,06,32,3.30
2022,05,07,06,33,3.30
2022,05,07,06,34,3.30
2022,05,07,06,35,3.30
2022,05,07,06,36,3.30
2022,05,07,06,37,3.30
2022,05,07,06,38,3.30
2022,05,07,06,39,3.30
2022,05,07,06,40,3.40
2022,05,07,06,41,3.40
2022,05,07,06,42,3.40
2022,05,07,06,43,3.40
2022,05,07,06,44,3.40
2022,05,07,06,45,3.40
2022,05,07,06,46,3.40
2022,05,07,06,47,3.40
2022,05,07,06,48,3.40
2022,05,07,06,49,3.40
2022,05,07,06,50,3.40
2022,05,07,06,51,3.50
2022,05,07,06,52,3.60
2022,05,07,06,53,3.60
2022,05,07,06,54,3.60
2022,05,07,06,55,3.60
2022,05,07,06,56,3.60
2022,05,07,06,57,3.60
2022,05,07,06,58,3.70
2022,05,07,06,59,3.70
2022,05,07,07,00,3.70
2022,05,07,07,01,3.70
2022,05,07,07,02,3.70
2022,05,07,07,03,3.70
2022,05,07,07,04,3.70
2022,05,07,07,05,3.70
2022,05,07,07,06,3.70
2022,05,07,07,07,3.80
2022,05,07,07,08,3.80
2022,05,07,07,09,3.80
2022,05,07,07,10,3.80
2022,05,07,07,11,3.80
2022,05,07,07,12,3.80
2022,05,07,07,13,3.80
2022,05,07,07,14,3.80
2022,05,07,07,15,3.80
2022,05,07,07,16,3.80
2022,05,07,07,17,3.90
2022,05,07,07,18,3.90
2022,05,07,07,19,3.90
2022,05,07,07,20,3.90
2022,05,07,07,21,3.90
2022,05,07,07,22,3.90
2022,05,07,07,23,3.90
2022,05,07,07,24,3.90
2022,05,07,07,25,3.90
2022,05,07,07,26,3.90
2022,05,07,07,27,3.90
2022,05,07,07,28,4.00
2022,05,07,07,29,4.00
2022,05,07,07,30,4.00
2022,05,07,07,31,4.00
2022,05,07,07,32,4.00
2022,05,07,07,33,4.00
2022,05,07,07,34,4.10
2022,05,07,07,35,4.10
2022,05,07,07,36,4.10
2022,05,07,07,37,4.10
2022,05,07,07,38,4.10
2022,05,07,07,39,4.10
2022,05,07,07,40,4.10
2022,05,07,07,41,4.10
2022,05,07,07,42,4.20
2022,05,07,07,43,4.20
2022,05,07,07,44,4.20
2022,05,07,07,45,4.20
2022,05,07,07,46,4.20
2022,05,07,07,47,4.20
2022,05,07,07,48,4.30
2022,05,07,07,49,4.30
2022,05,07,07,50,4.30
2022,05,07,07,51,4.30
2022,05,07,07,52,4.30
2022,05,07,07,53,4.30
2022,05,07,07,54,4.40
2022,05,07,07,55,4.40
2022,05,07,07,56,4.40
2022,05,07,07,57,4.40
2022,05,07,07,58,4.50
2022,05,07,07,59,4.50
2022,05,07,08,00,4.50
2022,05,07,08,01,4.50
2022,05,07,08,02,4.60
2022,05,07,08,03,4.60
2022,05,07,08,04,4.60
2022,05,07,08,05,4.60
2022,05,07,08,06,4.60
2022,05,07,08,07,4.60
2022,05,07,08,08,4.70
2022,05,07,08,09,4.70
2022,05,07,08,10,4.70
2022,05,07,08,11,4.80
2022,05,07,08,12,4.80
2022,05,07,08,13,4.80
2022,05,07,08,14,4.80
2022,05,07,08,15,4.90
2022,05,07,08,16,4.90
2022,05,07,08,17,4.90
2022,05,07,08,18,4.90
2022,05,07,08,19,4.90
2022,05,07,08,20,4.90
2022,05,07,08,21,5.00
2022,05,07,08,22,5.00
2022,05,07,08,23,5.00
2022,05,07,08,24,5.00
2022,05,07,08,25,5.10
2022,05,07,08,26,5.10
2022,05,07,08,27,5.10
2022,05,07,08,28,5.10
2022,05,07,08,29,5.10
2022,05,07,08,30,5.10
2022,05,07,08,31,5.20
2022,05,07,08,32,5.20
2022,05,07,08,33,5.30
2022,05,07,08,34,5.30
2022,05,07,08,35,5.30
2022,05,07,08,36,5.40
2022,05,07,08,37,5.40
2022,05,07,08,38,5.40
2022,05,07,08,39,5.50
2022,05,07,08,40,5.50
2022,05,07,08,41,5.50
2022,05,07,08,42,5.60
2022,05,07,08,43,5.60
2022,05,07,08,44,5.60
2022,05,07,08,45,5.60
2022,05,07,08,46,5.70
2022,05,07,08,47,5.70
2022,05,07,08,48,5.70
2022,05,07,08,49,5.70
2022,05,07,08,50,5.70
2022,05,07,08,51,5.70
2022,05,07,08,52,5.80
2022,05,07,08,53,5.80
2022,05,07,08,54,5.80
2022,05,07,08,55,5.80
2022,05,07,08,56,5.90
2022,05,07,08,57,5.90
2022,05,07,08,58,5.90
2022,05,07,08,59,5.90
2022,05,07,09,00,5.90
2022,05,07,09,01,5.90
2022,05,07,09,02,5.90
2022,05,07,09,03,5.90
2022,05,07,09,04,5.90
2022,05,07,09,05,5.90
2022,05,07,09,06,5.90
2022,05,07,09,07,6.00
2022,05,07,09,08,6.00
2022,05,07,09,09,6.00
2022,05,07,09,10,6.00
2022,05,07,09,11,6.00
2022,05,07,09,12,6.10
2022,05,07,09,13,6.10
2022,05,07,09,14,6.10
2022,05,07,09,15,6.10
2022,05,07,09,16,6.20
2022,05,07,09,17,6.20
2022,05,07,09,18,6.20
2022,05,07,09,19,6.20
2022,05,07,09,20,6.30
2022,05,07,09,21,6.30
2022,05,07,09,22,6.30
2022,05,07,09,23,6.30
2022,05,07,09,24,6.40
2022,05,07,09,25,6.40
2022,05,07,09,26,6.50
2022,05,07,09,27,6.50
2022,05,07,09,28,6.60
2022,05,07,09,29,6.60
2022,05,07,09,30,6.70
2022,05,07,09,31,6.70
2022,05,07,09,32,6.70
2022,05,07,09,33,6.70
2022,05,07,09,34,6.80
2022,05,07,09,35,6.80
2022,05,07,09,36,6.90
2022,05,07,09,37,6.90
2022,05,07,09,38,7.00
2022,05,07,09,39,7.00
2022,05,07,09,40,7.10
2022,05,07,09,41,7.10
2022,05,07,09,42,7.20
2022,05,07,09,43,7.30
2022,05,07,09,44,7.30
2022,05,07,09,45,7.40
2022,05,07,09,46,7.50
2022,05,07,09,47,7.50
2022,05,07,09,48,7.60
2022,05,07,09,49,7.60
2022,05,07,09,50,7.70
2022,05,07,09,51,7.70
2022,05,07,09,52,7.70
2022,05,07,09,53,7.80
2022,05,07,09,54,7.80
2022,05,07,09,55,7.80
2022,05,07,09,56,7.90
2022,05,07,09,57,7.90
2022,05,07,09,58,8.00
2022,05,07,09,59,8.00
2022,05,07,10,00,8.10
2022,05,07,10,01,8.10
2022,05,07,10,02,8.20
2022,05,07,10,03,8.20
2022,05,07,10,04,8.30
2022,05,07,10,05,8.30
2022,05,07,10,06,8.40
2022,05,07,10,07,8.50
2022,05,07,10,08,8.60
2022,05,07,10,09,8.70
2022,05,07,10,10,8.80
2022,05,07,10,11,9.00
2022,05,07,10,12,9.20
2022,05,07,10,13,9.30
2022,05,07,10,14,9.50
2022,05,07,10,15,9.60
2022,05,07,10,16,9.80
2022,05,07,10,17,9.90
2022,05,07,10,18,10.00
2022,05,07,10,19,10.10
2022,05,07,10,20,10.20
2022,05,07,10,21,10.30
2022,05,07,10,22,10.30
2022,05,07,10,23,10.40
2022,05,07,10,24,10.50
2022,05,07,10,25,10.60
2022,05,07,10,26,10.70
2022,05,07,10,27,10.70
2022,05,07,10,28,10.80
2022,05,07,10,29,10.80
2022,05,07,10,30,10.90
2022,05,07,10,31,10.90
2022,05,07,10,32,11.00
2022,05,07,10,33,11.10
2022,05,07,10,34,11.10
2022,05,07,10,35,11.10
2022,05,07,10,36,11.20
2022,05,07,10,37,11.20
2022,05,07,10,38,11.30
2022,05,07,10,39,11.30
2022,05,07,10,40,11.30
2022,05,07,10,41,11.30
2022,05,07,10,42,11.30
2022,05,07,10,43,11.30
2022,05,07,10,44,11.20
2022,05,07,10,45,11.20
2022,05,07,10,46,11.20
2022,05,07,10,47,11.20
2022,05,07,10,48,11.30
2022,05,07,10,49,11.30
2022,05,07,10,50,11.30
2022,05,07,10,51,11.30
2022,05,07,10,52,11.20
2022,05,07,10,53,11.20
2022,05,07,10,54,11.20
2022,05,07,10,55,11.10
2022,05,07,10,56,11.10
2022,05,07,10,57,11.10
2022,05,07,10,58,11.00
2022,05,07,10,59,11.00
2022,05,07,11,00,10.90
2022,05,07,11,01,10.80
2022,05,07,11,02,10.80
2022,05,07,11,03,10.80
2022,05,07,11,04,10.80
2022,05,07,11,05,10.80
2022,05,07,11,06,10.80
2022,05,07,11,07,10.80
2022,05,07,11,08,10.80
2022,05,07,11,09,10.80
2022,05,07,11,10,10.80
2022,05,07,11,11,10.80
2022,05,07,11,12,10.70
2022,05,07,11,13,10.70
2022,05,07,11,14,10.70
2022,05,07,11,15,10.80
2022,05,07,11,16,10.90
2022,05,07,11,17,11.00
2022,05,07,11,18,11.00
2022,05,07,11,19,11.10
2022,05,07,11,20,11.10
2022,05,07,11,21,11.10
2022,05,07,11,22,11.10
2022,05,07,11,23,11.10
2022,05,07,11,24,11.10
2022,05,07,11,25,11.10
2022,05,07,11,26,11.20
2022,05,07,11,27,11.30
2022,05,07,11,28,11.30
2022,05,07,11,29,11.30
2022,05,07,11,30,11.30
2022,05,07,11,31,11.30
2022,05,07,11,32,11.40
2022,05,07,11,33,11.50
2022,05,07,11,34,11.60
2022,05,07,11,35,11.70
2022,05,07,11,36,11.70
2022,05,07,11,37,11.80
2022,05,07,11,38,11.90
2022,05,07,11,39,12.00
2022,05,07,11,40,12.00
2022,05,07,11,41,12.00
2022,05,07,11,42,12.00
2022,05,07,11,43,12.10
2022,05,07,11,44,12.10
2022,05,07,11,45,12.10
2022,05,07,11,46,12.10
2022,05,07,11,47,12.10
2022,05,07,11,48,12.10
2022,05,07,11,49,12.10
2022,05,07,11,50,12.10
2022,05,07,11,51,12.10
2022,05,07,11,52,12.10
2022,05,07,11,53,12.10
2022,05,07,11,54,12.10
2022,05,07,11,55,12.20
2022,05,07,11,56,12.10
2022,05,07,11,57,12.10
2022,05,07,11,58,12.00
2022,05,07,11,59,11.90
2022,05,07,12,00,11.90
2022,05,07,12,01,12.00
2022,05,07,12,02,12.00
2022,05,07,12,03,12.00
2022,05,07,12,04,11.90
2022,05,07,12,05,11.90
2022,05,07,12,06,12.00
2022,05,07,12,07,12.00
2022,05,07,12,08,12.00
2022,05,07,12,09,12.10
2022,05,07,12,10,12.10
2022,05,07,12,11,12.10
2022,05,07,12,12,12.10
2022,05,07,12,13,12.00
2022,05,07,12,14,11.90
2022,05,07,12,15,11.70
2022,05,07,12,16,11.70
2022,05,07,12,17,11.70
2022,05,07,12,18,11.70
2022,05,07,12,19,11.60
2022,05,07,12,20,11.60
2022,05,07,12,21,11.60
2022,05,07,12,22,11.60
2022,05,07,12,23,11.70
2022,05,07,12,24,11.70
2022,05,07,12,25,11.70
2022,05,07,12,26,11.70
2022,05,07,12,27,11.80
2022,05,07,12,28,11.90
2022,05,07,12,29,11.90
2022,05,07,12,30,11.90
2022,05,07,12,31,11.70
2022,05,07,12,32,11.80
2022,05,07,12,33,11.80
2022,05,07,12,34,11.80
2022,05,07,12,35,11.80
2022,05,07,12,36,11.90
2022,05,07,12,37,11.80
2022,05,07,12,38,11.80
2022,05,07,12,39,11.80
2022,05,07,12,40,11.80
2022,05,07,12,41,11.80
2022,05,07,12,42,11.90
2022,05,07,12,43,11.90
2022,05,07,12,44,11.90
2022,05,07,12,45,11.90
2022,05,07,12,46,11.80
2022,05,07,12,47,11.80
2022,05,07,12,48,11.80
2022,05,07,12,49,11.80
2022,05,07,12,50,11.80
2022,05,07,12,51,11.80
2022,05,07,12,52,11.90
2022,05,07,12,53,12.00
2022,05,07,12,54,12.10
2022,05,07,12,55,12.10
2022,05,07,12,56,12.10
2022,05,07,12,57,12.10
2022,05,07,12,58,12.20
2022,05,07,12,59,12.40
2022,05,07,13,00,12.50
2022,05,07,13,01,12.60
2022,05,07,13,02,12.50
2022,05,07,13,03,12.50
2022,05,07,13,04,12.50
2022,05,07,13,05,12.50
2022,05,07,13,06,12.50
2022,05,07,13,07,12.60
2022,05,07,13,08,12.60
2022,05,07,13,09,12.50
2022,05,07,13,10,12.50
2022,05,07,13,11,12.30
2022,05,07,13,12,12.20
2022,05,07,13,13,12.10
2022,05,07,13,14,12.00
2022,05,07,13,15,12.10
2022,05,07,13,16,12.10
2022,05,07,13,17,12.00
2022,05,07,13,18,12.00
2022,05,07,13,19,11.90
2022,05,07,13,20,11.80
2022,05,07,13,21,11.80
2022,05,07,13,22,11.80
2022,05,07,13,23,11.80
2022,05,07,13,24,11.80
2022,05,07,13,25,11.80
2022,05,07,13,26,11.80
2022,05,07,13,27,11.90
2022,05,07,13,28,11.80
2022,05,07,13,29,11.90
2022,05,07,13,30,12.00
2022,05,07,13,31,12.10
2022,05,07,13,32,12.20
2022,05,07,13,33,12.20
2022,05,07,13,34,12.20
2022,05,07,13,35,12.10
2022,05,07,13,36,11.90
2022,05,07,13,37,11.80
2022,05,07,13,38,11.70
2022,05,07,13,39,11.70
2022,05,07,13,40,11.80
2022,05,07,13,41,11.80
2022,05,07,13,42,11.90
2022,05,07,13,43,11.90
2022,05,07,13,44,11.90
2022,05,07,13,45,12.00
2022,05,07,13,46,12.00
2022,05,07,13,47,12.00
2022,05,07,13,48,12.00
2022,05,07,13,49,12.00
2022,05,07,13,50,12.00
2022,05,07,13,51,12.10
2022,05,07,13,52,12.10
2022,05,07,13,53,12.10
2022,05,07,13,54,12.10
2022,05,07,13,55,12.10
2022,05,07,13,56,12.00
2022,05,07,13,57,12.10
2022,05,07,13,58,12.10
2022,05,07,13,59,12.10
2022,05,07,14,00,12.00
2022,05,07,14,01,11.90
2022,05,07,14,02,11.90
2022,05,07,14,03,11.80
2022,05,07,14,04,11.80
2022,05,07,14,05,11.80
2022,05,07,14,06,11.80
2022,05,07,14,07,11.70
2022,05,07,14,08,11.60
2022,05,07,14,09,11.70
2022,05,07,14,10,11.70
2022,05,07,14,11,11.70
2022,05,07,14,12,11.60
2022,05,07,14,13,11.60
2022,05,07,14,14,11.50
2022,05,07,14,15,11.50
2022,05,07,14,16,11.50
2022,05,07,14,17,11.40
2022,05,07,14,18,11.40
2022,05,07,14,19,11.50
2022,05,07,14,20,11.50
2022,05,07,14,21,11.40
2022,05,07,14,22,11.30
2022,05,07,14,23,11.30
2022,05,07,14,24,11.20
2022,05,07,14,25,11.20
2022,05,07,14,26,11.20
2022,05,07,14,27,11.20
2022,05,07,14,28,11.30
2022,05,07,14,29,11.30
2022,05,07,14,30,11.30
2022,05,07,14,31,11.30
2022,05,07,14,32,11.30
2022,05,07,14,33,11.30
2022,05,07,14,34,11.40
2022,05,07,14,35,11.50
2022,05,07,14,36,11.60
2022,05,07,14,37,11.70
2022,05,07,14,38,11.80
2022,05,07,14,39,11.90
2022,05,07,14,40,11.90
2022,05,07,14,41,12.00
2022,05,07,14,42,12.10
2022,05,07,14,43,12.10
2022,05,07,14,44,12.00
2022,05,07,14,45,12.00
2022,05,07,14,46,11.90
2022,05,07,14,47,11.90
2022,05,07,14,48,11.80
2022,05,07,14,49,11.80
2022,05,07,14,50,11.80
2022,05,07,14,51,11.80
2022,05,07,14,52,11.80
2022,05,07,14,53,11.80
2022,05,07,14,54,11.70
2022,05,07,14,55,11.60
2022,05,07,14,56,11.60
2022,05,07,14,57,11.70
2022,05,07,14,58,11.70
2022,05,07,14,59,11.70
2022,05,07,15,00,11.60
2022,05,07,15,01,11.60
2022,05,07,15,02,11.50
2022,05,07,15,03,11.50
2022,05,07,15,04,11.50
2022,05,07,15,05,11.50
2022,05,07,15,06,11.50
2022,05,07,15,07,11.60
2022,05,07,15,08,11.50
2022,05,07,15,09,11.40
2022,05,07,15,10,11.40
2022,05,07,15,11,11.30
2022,05,07,15,12,11.20
2022,05,07,15,13,11.20
2022,05,07,15,14,11.20
2022,05,07,15,15,11.20
2022,05,07,15,16,11.20
2022,05,07,15,17,11.20
2022,05,07,15,18,11.20
2022,05,07,15,19,11.20
2022,05,07,15,20,11.10
2022,05,07,15,21,11.10
2022,05,07,15,22,11.20
2022,05,07,15,23,11.30
2022,05,07,15,24,11.30
2022,05,07,15,25,11.40
2022,05,07,15,26,11.40
2022,05,07,15,27,11.40
2022,05,07,15,28,11.30
2022,05,07,15,29,11.20
2022,05,07,15,30,11.00
2022,05,07,15,31,11.00
2022,05,07,15,32,10.90
2022,05,07,15,33,10.90
2022,05,07,15,34,10.90
2022,05,07,15,35,10.80
2022,05,07,15,36,10.80
2022,05,07,15,37,10.80
2022,05,07,15,38,10.70
2022,05,07,15,39,10.60
2022,05,07,15,40,10.50
2022,05,07,15,41,10.40
2022,05,07,15,42,10.30
2022,05,07,15,43,10.40
2022,05,07,15,44,10.60
2022,05,07,15,45,10.60
2022,05,07,15,46,10.60
2022,05,07,15,47,10.60
2022,05,07,15,48,10.60
2022,05,07,15,49,10.60
2022,05,07,15,50,10.60
2022,05,07,15,51,10.60
2022,05,07,15,52,10.50
2022,05,07,15,53,10.50
2022,05,07,15,54,10.50
2022,05,07,15,55,10.60
2022,05,07,15,56,10.70
2022,05,07,15,57,10.70
2022,05,07,15,58,10.70
2022,05,07,15,59,10.70
2022,05,07,16,00,10.60
2022,05,07,16,01,10.60
2022,05,07,16,02,10.60
2022,05,07,16,03,10.60
2022,05,07,16,04,10.60
2022,05,07,16,05,10.50
2022,05,07,16,06,10.40
2022,05,07,16,07,10.40
2022,05,07,16,08,10.40
2022,05,07,16,09,10.30
2022,05,07,16,10,10.20
2022,05,07,16,11,10.20
2022,05,07,16,12,10.20
2022,05,07,16,13,10.20
2022,05,07,16,14,10.20
2022,05,07,16,15,10.30
2022,05,07,16,16,10.30
2022,05,07,16,17,10.40
2022,05,07,16,18,10.50
2022,05,07,16,19,10.60
2022,05,07,16,20,10.60
2022,05,07,16,21,10.70
2022,05,07,16,22,10.70
2022,05,07,16,23,10.70
2022,05,07,16,24,10.60
2022,05,07,16,25,10.50
2022,05,07,16,26,10.40
2022,05,07,16,27,10.30
2022,05,07,16,28,10.40
2022,05,07,16,29,10.50
2022,05,07,16,30,10.60
2022,05,07,16,31,10.60
2022,05,07,16,32,10.70
2022,05,07,16,33,10.60
2022,05,07,16,34,10.70
2022,05,07,16,35,10.70
2022,05,07,16,36,10.70
2022,05,07,16,37,10.60
2022,05,07,16,38,10.60
2022,05,07,16,39,10.60
2022,05,07,16,40,10.70
2022,05,07,16,41,10.70
2022,05,07,16,42,10.70
2022,05,07,16,43,10.70
2022,05,07,16,44,10.70
2022,05,07,16,45,10.70
2022,05,07,16,46,10.60
2022,05,07,16,47,10.60
2022,05,07,16,48,10.60
2022,05,07,16,49,10.50
2022,05,07,16,50,10.40
2022,05,07,16,51,10.40
2022,05,07,16,52,10.30
2022,05,07,16,53,10.30
2022,05,07,16,54,10.30
2022,05,07,16,55,10.40
2022,05,07,16,56,10.40
2022,05,07,16,57,10.40
2022,05,07,16,58,10.40
2022,05,07,16,59,10.30
2022,05,07,17,00,10.30
2022,05,07,17,01,10.30
2022,05,07,17,02,10.30
2022,05,07,17,03,10.30
2022,05,07,17,04,10.20
2022,05,07,17,05,10.20
2022,05,07,17,06,10.10
2022,05,07,17,07,10.20
2022,05,07,17,08,10.20
2022,05,07,17,09,10.30
2022,05,07,17,10,10.30
2022,05,07,17,11,10.20
2022,05,07,17,12,10.20
2022,05,07,17,13,10.20
2022,05,07,17,14,10.30
2022,05,07,17,15,10.30
2022,05,07,17,16,10.20
2022,05,07,17,17,10.10
2022,05,07,17,18,10.10
2022,05,07,17,19,10.10
2022,05,07,17,20,10.10
2022,05,07,17,21,10.00
2022,05,07,17,22,9.90
2022,05,07,17,23,9.90
2022,05,07,17,24,9.90
2022,05,07,17,25,9.90
2022,05,07,17,26,9.90
2022,05,07,17,27,9.90
2022,05,07,17,28,9.90
2022,05,07,17,29,9.90
2022,05,07,17,30,9.90
2022,05,07,17,31,10.00
2022,05,07,17,32,10.00
2022,05,07,17,33,10.10
2022,05,07,17,34,10.20
2022,05,07,17,35,10.20
2022,05,07,17,36,10.30
2022,05,07,17,37,10.30
2022,05,07,17,38,10.30
2022,05,07,17,39,10.20
2022,05,07,17,40,10.10
2022,05,07,17,41,10.10
2022,05,07,17,42,10.00
2022,05,07,17,43,10.00
2022,05,07,17,44,9.90
2022,05,07,17,45,9.80
2022,05,07,17,46,9.70